Regional Weather Roundup
Issued by NWS

Home | Current Version | Previous Version | Graphics & Text | Print | Product List | Glossary On
Versions: 1 2 3 4 5 6 7 8 9 10 11 12 13 14 15 16 17 18 19 20 21 22 23 24 25 26 27 28 29 30 31 32 33 34 35 36 37 38 39 40 41 42 43 44 45 46 47 48 49 50
000
ASUS43 KDMX 010907
RWRIA

WEATHER ROUNDUP FOR IOWA
NATIONAL WEATHER SERVICE DES MOINES IA
400 AM CDT TUE SEP 01 2015

NOTE: "FAIR" INDICATES FEW OR NO CLOUDS BELOW 12,000 FEET WITH NO
SIGNIFICANT WEATHER AND/OR OBSTRUCTIONS TO VISIBILITY.

* - THESE STATIONS ARE NOT NWS STATIONS...THUS NOT UNDER NWS
QUALITY CONTROL.  THEY ALSO DO NOT REPORT WEATHER SUCH
AS PRECIPITATION OR FOG.

IAZ001>003-012>014-020>022-031>034-043>046-011000-
   NORTHWEST IOWA

CITY           SKY/WX    TMP DP  RH WIND       PRES   REMARKS
CARROLL *      CLOUDY    70  70 100 SW9       29.94S
CHEROKEE *     CLEAR     64  64 100 CALM      29.92S FOG
DENISON *      CLEAR     70  68  94 S6        29.92S
LE MARS *      CLEAR     66  64  94 CALM      29.91S
ORANGE CITY *  CLEAR     68  66  94 SE5       29.91F
SHELDON *      CLEAR     66  64  94 SE5       29.90F
SIOUX CITY     CLEAR     67  64  90 E9        29.89F
SPENCER        PTCLDY    64  61  90 SE5       29.92F FOG
STORM LAKE *   CLEAR     66  66 100 S7        29.94S
$$

IAZ055>058-069>071-079>083-090>094-011000-
   SOUTHWEST IOWA

CITY           SKY/WX    TMP DP  RH WIND       PRES   REMARKS
ATLANTIC *     CLEAR     66  66 100 S3        29.95F FOG
AUDUBON *      CLEAR     66  63  88 CALM      29.97R FOG
CLARINDA *     CLEAR     66  66 100 CALM      29.98R FOG
COUNCIL BLFS *   N/A     72  68  88 S8        29.94S
CRESTON *      CLEAR     68  68 100 S7        29.99S
LAMONI         CLEAR     70  68  93 S7        29.99R
RED OAK *      CLEAR     68  68 100 CALM      29.95S
SHENANDOAH *   CLEAR     66  66 100 CALM      29.95S
$$

IAZ047>049-059>061-072>074-084-011000-
   CENTRAL IOWA

CITY           SKY/WX    TMP DP  RH WIND       PRES   REMARKS
AMES           FOG       65  65 100 CALM      29.95S VSB 1/2
ANKENY *       CLEAR     68  68 100 S3        29.96R FOG
CHARITON *     CLEAR     70  68  94 S7        29.99R
DES MOINES     CLEAR     72  67  84 S9        29.95S
GRINNELL*      PTCLDY    70  66  88 S6        29.99R
KNOXVILLE *    CLEAR     70  68  94 S8        29.96S
MARSHALLTOWN   PTCLDY    69  68  96 SE6       29.96S
PELLA *        CLEAR     70  70 100 S6        29.98S
PERRY *          N/A     66  66 100 SE3       29.95S FOG
$$

IAZ004>006-015-016-023>025-035-036-011000-
   NORTH CENTRAL IOWA

CITY           SKY/WX    TMP DP  RH WIND       PRES   REMARKS
ALGONA *       CLEAR     68  66  94 SE6       29.94S FOG
CLARION *      CLEAR     68  66  94 S9        29.95S FOG
ESTHERVILLE    PTCLDY    61  61 100 S6        29.93S
FORT DODGE *   CLEAR     64  63  94 CALM      29.95S
MASON CITY     FOG       65  65 100 S5        29.97S VSB 1/2
FOREST CITY *  FOG       61  61 100 CALM      29.95F VSB 1/4
IOWA FALLS *   MOCLDY    68  66  94 SE3       29.97S FOG
$$

IAZ007>011-017>019-026>030-037>042-050>054-066-011000-
   NORTHEAST IOWA

CITY           SKY/WX    TMP DP  RH WIND       PRES   REMARKS
CEDAR RAPIDS   CLEAR     69  69 100 S3        29.98S FOG
CHARLES CITY * FOG       68  68 100 S7        29.97S VSB 1
CLINTON *      CLEAR     70  66  88 S6        30.02S
DECORAH *      MOCLDY    72  70  94 CALM      29.96S FOG
DUBUQUE        CLEAR     70  69  97 S6        30.00S FOG
MONTICELLO *   CLEAR     70  68  94 S5        29.98S FOG
OELWEIN *      FOG       68  68 100 S5        29.98S VSB 1
WATERLOO       PTCLDY    69  68  96 SE3       29.96R FOG
$$

IAZ064-065-067-068-078-011000-
   EAST CENTRAL IOWA

CITY           SKY/WX    TMP DP  RH WIND       PRES   REMARKS
DAVENPORT      MOCLDY    73  70  90 S6        30.00S
IOWA CITY      CLEAR     68  67  96 CALM      29.99S FOG
MT. PLEASANT * CLEAR     73  70  88 S6        30.00S FOG
MUSCATINE *    CLEAR     70  68  94 CALM      29.99S FOG
QUAD CITIES    CLEAR     74  69  85 CALM      29.99S
$$

IAZ062-063-075>077-085>089-095>099-011000-
   SOUTHEAST IOWA

CITY           SKY/WX    TMP DP  RH WIND       PRES   REMARKS
BURLINGTON     CLEAR     73  72  96 S6        30.00S
FAIRFIELD *      N/A     70  68  94 S6        29.99S
FORT MADISON * CLEAR     73  73 100 S7        30.02S
KEOKUK *       CLEAR     73  72  94 SW7       30.00S
OSKALOOSA *      N/A     68  66  94 S5        29.99S
CENTERVILLE *  CLEAR     68  66  94 S5        30.02R
OTTUMWA        CLEAR     70  68  93 S8        29.97S
WASHINGTON *     N/A    N/A N/A N/A MISG        N/A
$$

ABBREVIATIONS USED IN REMARKS
   TC - TEMPERATURES IN CELSIUS
  WCI - WIND CHILL INDEX
   HX - HEAT INDEX
  VSB - VISIBILITY
$$



USA.gov is the U.S. government's official web portal to all federal, state and local government web resources and services.